Temp
66 69 68 67 54 50 48 55 63 61 64 70 74 67 63 65 61 54 71 72 73 73 74 74 73 74 74 74 74 74 75 75 75 74 74 74 74 74 74 74 74 75 76 76 75 75 74 74 73
72 78 70 62 49 41 48 63 59 61 69 73 73 70 65 61 70 68 69 72 73 73 73 73 73 73 74 74 74 74 75 74 74 74 74 74 74 74 74 74 74 74 75 75 75 74 74 72 72
73 78 61 54 48 47 49 61 63 69 72 70 68 71 66 61 72 72 73 74 73 73 74 73 72 72 73 74 74 73 73 73 74 74 74 74 74 74 74 73 73 74 74 75 74 73 72 71 70
72 68 63 51 49 59 62 64 66 68 71 73 69 62 69 70 70 71 71 72 73 72 72 71 71 72 73 73 73 73 73 73 73 73 74 74 74 73 73 72 72 73 74 74 73 72 71 70 70
70 64 54 51 55 65 69 70 69 63 65 65 68 61 60 67 70 70 71 72 70 70 71 72 70 71 73 73 73 72 72 72 72 72 72 73 73 72 72 71 71 72 72 72 72 71 70 70 70
61 61 49 49 59 68 65 61 63 62 64 66 66 63 61 68 66 67 68 67 68 69 70 72 72 71 71 72 71 71 71 71 71 71 72 72 72 71 71 71 71 71 71 71 70 70 70 70 70
58 54 50 54 60 62 61 64 58 59 62 65 69 60 63 64 65 66 65 66 66 67 68 69 69 71 69 69 69 69 70 70 70 70 70 70 70 70 70 70 70 70 70 70 70 69 69 69 69
65 57 52 58 60 52 61 60 62 58 61 73 72 59 56 62 65 65 65 65 65 66 66 67 68 69 68 69 69 69 69 69 69 69 69 69 69 69 69 69 69 70 70 70 70 69 69 69 69
67 52 54 56 55 57 62 60 61 64 59 71 70 67 65 65 65 64 63 64 65 66 67 67 68 69 67 68 69 69 69 69 69 69 69 66 67 68 68 68 69 69 69 69 69 70 69 68 68
61 50 56 64 60 58 59 63 61 62 62 62 63 64 64 64 63 62 60 59 61 63 65 67 69 68 69 72 67 66 69 67 66 67 66 66 66 66 69 67 68 69 68 69 69 69 69 68 65
63 59 67 70 67 62 58 60 68 64 61 58 63 64 61 63 63 62 60 62 62 65 68 68 70 68 69 68 67 67 66 65 66 67 66 66 67 66 64 62 64 62 66 64 66 65 64 64 62
59 68 70 71 67 63 59 63 65 63 66 65 62 65 65 65 65 63 62 61 63 64 68 71 71 70 69 69 68 68 67 65 65 65 66 65 65 63 64 64 66 63 62 61 60 59 61 61 63
64 70 72 73 68 67 67 59 64 62 64 68 68 67 65 65 64 67 66 67 67 69 70 69 69 69 69 66 65 66 64 65 65 64 65 64 63 62 63 61 60 60 60 60 59 58 59 59 60
70 70 68 71 70 71 65 60 67 65 64 66 66 63 64 66 68 67 69 71 70 70 69 67 67 67 67 65 65 65 64 64 64 63 63 64 63 61 61 60 60 60 60 59 57 57 56 56 57
71 63 67 67 66 63 67 56 59 67 66 63 63 66 67 67 67 67 70 71 70 70 69 66 65 66 65 64 64 63 64 63 63 61 62 62 62 59 59 58 57 58 58 57 56 56 55 54 56
62 61 54 63 67 67 67 52 61 66 66 63 65 67 69 70 71 73 72 72 71 70 69 68 69 64 63 61 59 59 58 60 60 59 59 61 62 60 58 57 56 56 56 55 54 53 52 51 51
56 51 56 59 69 64 62 56 63 67 68 65 65 66 67 68 70 73 73 73 72 72 69 64 63 61 60 59 58 57 57 56 57 57 58 61 60 60 59 56 55 55 54 53 54 52 51 49 49
51 54 51 56 64 65 59 58 62 67 68 66 64 65 66 68 69 73 73 73 72 70 65 63 62 59 58 57 57 56 55 55 55 55 56 59 60 60 57 56 55 55 54 52 52 51 50 49 48
61 58 56 61 66 60 60 58 61 66 66 64 65 66 65 67 71 73 72 73 69 65 63 62 60 59 58 56 54 53 52 53 54 56 58 59 59 59 56 55 54 54 52 52 51 49 49 48 47
61 59 58 63 66 62 59 59 63 66 65 67 65 64 65 65 69 70 68 69 66 64 62 61 61 60 59 58 57 57 54 55 56 57 57 59 59 59 58 55 53 53 52 51 50 49 47 46 46
58 54 54 54 59 61 58 54 59 65 67 69 69 69 70 68 68 69 68 65 63 63 61 61 62 61 61 61 60 58 56 55 54 55 55 57 60 60 58 56 54 53 51 49 48 48 47 44 45
53 65 62 60 54 45 57 41 53 60 65 68 68 67 67 65 68 70 67 62 64 62 62 63 63 62 63 65 61 57 55 55 56 56 56 57 59 59 59 57 54 52 51 50 48 51 46 44 42
57 63 62 60 56 53 51 43 51 58 59 64 63 65 68 69 68 68 67 64 65 63 62 63 64 63 64 66 63 60 56 56 56 57 57 57 59 60 58 54 51 51 49 48 47 46 45 44 42
66 60 60 53 50 40 52 49 46 55 60 63 68 69 66 64 68 69 69 68 65 64 63 63 64 65 64 63 61 59 58 58 58 59 58 58 57 55 53 53 50 49 48 47 45 45 44 43 42
61 53 39 35 33 34 55 50 49 61 66 63 66 69 62 65 62 64 65 65 65 64 63 62 62 64 64 61 60 59 57 56 55 56 57 55 51 49 51 50 48 47 47 47 46 44 43 43 40
57 53 38 32 31 35 56 47 52 64 66 68 69 64 64 63 63 63 65 64 64 64 62 65 67 68 65 61 59 58 57 54 54 55 54 53 52 52 50 49 48 48 48 46 45 44 42 42 40
54 47 58 44 39 32 44 54 59 63 63 63 63 63 60 61 62 62 63 64 64 61 61 64 65 63 60 59 56 55 55 54 53 54 55 53 53 54 51 50 47 47 47 46 43 41 41 40 39
59 62 45 44 34 32 42 45 45 55 60 61 60 59 60 62 62 62 62 61 61 61 61 61 61 60 58 56 56 55 54 54 55 53 54 53 52 52 50 48 47 46 45 44 42 40 41 40 38
55 52 54 52 43 33 29 40 55 58 60 59 59 61 61 61 61 61 61 63 63 61 61 61 59 60 59 57 54 53 52 55 56 55 53 52 51 51 49 48 47 46 44 43 41 40 41 40 38
62 56 52 35 41 40 33 38 59 60 61 61 61 64 63 64 63 62 62 63 62 61 62 59 58 61 59 57 55 55 56 56 56 54 51 52 50 49 48 48 47 47 44 42 42 41 40 39 38
MSLP
1012.07 1012.19 1012.78 1013.00 1013.83 1013.21 1012.62 1011.12 1009.96 1008.98 1008.95 1008.90 1008.39 1009.21 1010.87 1011.38 1012.14 1013.19 1013.65 1014.03 1014.39 1014.84 1015.08 1016.23 1016.23 1017.03 1017.72 1018.17 1018.60 1018.83 1019.01 1019.22 1019.45 1019.71 1020.11 1020.15 1020.68 1020.86 1020.96 1021.30 1021.18 1021.21 1021.38 1021.41 1021.64 1021.59 1021.47 1021.30 1021.13
1011.72 1011.85 1012.60 1012.70 1013.17 1013.22 1011.91 1010.37 1010.19 1009.40 1008.85 1008.79 1009.14 1010.23 1011.01 1012.42 1012.50 1013.19 1013.93 1014.43 1014.81 1014.98 1015.67 1016.41 1016.65 1017.25 1017.90 1018.39 1018.77 1018.87 1019.13 1019.60 1019.98 1019.98 1020.22 1020.43 1020.78 1021.30 1021.27 1021.50 1021.60 1021.56 1021.94 1021.99 1022.11 1022.24 1021.95 1021.66 1021.58
1011.91 1011.95 1012.71 1012.57 1012.44 1012.62 1011.27 1010.35 1009.78 1009.46 1009.30 1009.29 1010.03 1010.61 1011.68 1013.01 1012.96 1013.46 1013.85 1014.47 1014.63 1015.07 1015.90 1016.55 1016.86 1017.62 1018.24 1018.41 1018.83 1019.10 1019.32 1019.93 1020.30 1020.14 1020.49 1020.64 1021.02 1021.54 1021.66 1021.63 1021.93 1022.17 1022.27 1022.50 1022.44 1022.56 1022.43 1022.13 1021.81
1011.95 1011.89 1012.02 1011.94 1011.84 1010.38 1010.19 1009.71 1009.59 1009.77 1009.77 1009.58 1010.59 1012.03 1012.94 1013.69 1013.28 1013.49 1014.29 1014.72 1014.62 1015.06 1015.61 1016.45 1017.18 1017.53 1017.98 1018.60 1018.84 1019.26 1019.39 1020.43 1020.59 1020.64 1020.93 1021.02 1021.37 1021.68 1021.88 1021.98 1022.07 1022.62 1022.68 1022.86 1022.97 1022.94 1022.90 1022.69 1022.31
1012.11 1012.02 1012.12 1011.74 1010.78 1009.85 1009.74 1008.79 1009.41 1010.55 1010.90 1010.89 1010.94 1012.61 1013.73 1014.29 1013.71 1013.79 1014.59 1014.98 1014.91 1015.56 1015.96 1016.38 1017.25 1017.93 1018.17 1018.47 1019.12 1019.33 1019.71 1020.55 1020.71 1020.97 1021.06 1021.19 1021.76 1022.18 1022.30 1022.42 1022.46 1022.85 1022.95 1023.22 1023.17 1023.23 1023.28 1023.00 1022.82
1012.27 1011.74 1012.15 1011.60 1010.81 1011.13 1010.59 1011.78 1011.08 1010.88 1011.35 1011.01 1011.36 1012.36 1013.97 1014.62 1014.91 1015.09 1015.06 1015.27 1014.12 1015.25 1016.61 1016.53 1017.42 1017.87 1018.75 1019.04 1019.35 1019.78 1020.25 1020.53 1020.80 1021.15 1021.25 1021.71 1022.07 1022.46 1022.49 1022.62 1022.73 1022.92 1023.32 1023.46 1023.53 1023.62 1023.68 1023.26 1023.13
1011.76 1012.12 1011.91 1011.60 1011.11 1011.68 1011.81 1011.74 1013.21 1013.15 1012.13 1010.80 1010.73 1012.24 1014.35 1015.12 1015.75 1015.75 1015.87 1016.15 1016.25 1017.73 1017.75 1017.41 1017.98 1018.37 1019.54 1019.49 1019.77 1020.09 1020.57 1020.72 1020.96 1021.12 1021.62 1021.97 1022.20 1022.46 1022.71 1022.91 1022.99 1023.22 1023.34 1023.48 1023.58 1023.77 1023.72 1023.68 1023.55
1010.78 1011.76 1011.73 1011.30 1011.43 1012.51 1012.83 1012.72 1013.61 1013.46 1012.84 1010.82 1010.37 1012.43 1014.55 1015.62 1016.16 1016.34 1016.74 1017.13 1018.00 1017.97 1018.00 1018.66 1019.06 1019.59 1020.12 1020.02 1020.11 1020.19 1020.68 1020.99 1021.09 1021.43 1021.84 1022.03 1022.37 1022.58 1022.68 1023.04 1023.26 1023.53 1023.55 1023.48 1023.40 1023.61 1023.94 1023.82 1023.77
1010.22 1011.36 1011.02 1010.86 1011.06 1011.81 1011.91 1013.12 1012.98 1012.92 1014.02 1011.96 1011.36 1012.11 1013.72 1015.32 1015.91 1016.64 1017.39 1017.94 1018.25 1018.66 1019.07 1019.03 1019.52 1019.86 1020.04 1020.30 1020.44 1020.47 1020.97 1021.13 1021.28 1021.59 1021.87 1022.17 1022.49 1022.47 1022.71 1022.95 1023.26 1023.38 1023.51 1023.44 1023.55 1023.85 1023.83 1023.80 1023.86
1010.15 1010.61 1010.07 1009.91 1010.49 1011.21 1011.84 1011.52 1011.58 1012.11 1012.79 1013.11 1013.05 1014.16 1014.74 1015.30 1016.13 1016.81 1017.31 1018.33 1018.82 1018.98 1018.83 1018.96 1019.17 1019.84 1020.15 1020.20 1020.42 1020.84 1020.98 1021.20 1021.37 1021.73 1022.02 1022.09 1022.29 1022.34 1022.57 1022.87 1023.01 1023.19 1023.52 1023.50 1023.82 1023.95 1023.90 1024.01 1024.13
1009.66 1009.51 1009.26 1009.27 1009.47 1010.41 1011.29 1011.73 1011.21 1011.85 1012.85 1013.39 1013.64 1014.75 1015.03 1015.17 1016.58 1017.06 1017.77 1017.88 1018.14 1018.45 1018.50 1018.64 1019.16 1019.55 1019.71 1020.12 1020.58 1020.85 1020.79 1020.94 1021.15 1021.89 1021.87 1022.00 1022.36 1022.35 1022.66 1023.15 1023.23 1023.67 1023.86 1024.03 1024.22 1024.19 1024.52 1024.25 1024.39
1009.29 1008.58 1008.33 1008.82 1009.11 1010.14 1011.09 1011.38 1011.78 1011.91 1012.32 1012.93 1013.91 1015.05 1015.13 1015.29 1016.00 1016.82 1017.56 1018.24 1018.22 1018.32 1018.41 1018.46 1018.89 1019.24 1019.58 1019.83 1020.13 1020.45 1020.68 1020.84 1021.34 1021.60 1021.56 1021.80 1022.53 1022.81 1023.08 1023.42 1023.77 1023.86 1024.07 1024.14 1024.28 1024.58 1024.63 1024.61 1024.68
1008.44 1007.80 1007.83 1007.94 1008.76 1009.50 1010.88 1011.56 1011.52 1011.60 1012.21 1012.61 1012.28 1013.85 1014.99 1015.12 1015.55 1016.18 1016.79 1017.34 1017.76 1018.03 1018.05 1018.53 1018.94 1019.16 1019.37 1019.64 1020.14 1020.47 1020.77 1020.86 1021.31 1021.79 1021.76 1022.11 1022.21 1022.70 1023.19 1023.66 1023.88 1024.08 1024.03 1024.12 1024.54 1024.87 1024.98 1025.11 1025.10
1007.69 1007.47 1007.56 1007.89 1008.56 1009.27 1010.00 1011.30 1010.86 1011.26 1012.21 1012.15 1012.49 1013.39 1014.16 1014.74 1014.87 1015.57 1016.10 1016.29 1016.90 1017.54 1018.21 1018.65 1018.91 1019.21 1019.39 1019.74 1019.93 1020.45 1020.86 1021.09 1021.45 1021.80 1022.00 1022.55 1022.75 1022.61 1023.33 1023.88 1023.93 1024.08 1024.29 1024.48 1024.88 1025.08 1025.38 1025.59 1025.38
1007.60 1007.84 1007.46 1007.78 1008.34 1009.52 1010.11 1011.32 1011.19 1011.46 1012.11 1012.69 1013.10 1013.09 1013.33 1013.97 1014.34 1014.75 1015.11 1015.57 1016.55 1017.40 1017.95 1018.76 1019.07 1019.24 1019.61 1019.84 1020.15 1020.92 1020.97 1021.19 1021.26 1021.81 1022.25 1022.61 1022.88 1023.03 1023.37 1023.97 1024.27 1024.52 1024.56 1024.66 1024.93 1025.21 1025.55 1025.75 1025.64
1008.52 1007.99 1008.07 1007.94 1008.35 1009.35 1009.93 1011.09 1011.05 1011.66 1011.82 1012.54 1012.84 1012.82 1012.96 1013.71 1013.75 1014.14 1014.63 1015.46 1016.22 1016.91 1017.83 1018.72 1019.16 1019.59 1019.99 1020.38 1020.76 1021.13 1021.46 1021.70 1022.37 1022.62 1022.51 1022.64 1022.86 1023.04 1023.42 1024.08 1024.50 1024.65 1024.78 1024.87 1025.19 1025.55 1025.97 1026.11 1026.01
1008.96 1008.75 1008.37 1008.27 1007.90 1009.37 1010.08 1010.57 1010.62 1010.98 1011.19 1011.95 1012.36 1012.58 1012.75 1012.98 1013.36 1013.68 1014.20 1014.86 1015.66 1016.45 1017.61 1018.91 1019.45 1019.87 1020.30 1020.69 1021.15 1021.60 1022.09 1022.50 1022.83 1022.69 1022.65 1022.70 1022.87 1022.73 1023.64 1024.16 1024.57 1024.73 1024.91 1024.99 1025.21 1025.54 1025.77 1026.04 1025.99
1009.29 1008.86 1008.69 1008.32 1008.09 1008.68 1009.43 1009.64 1010.04 1010.19 1010.47 1011.25 1011.75 1012.04 1012.39 1012.50 1012.70 1013.03 1013.71 1014.64 1015.59 1016.59 1017.68 1018.59 1019.56 1020.13 1020.84 1021.09 1021.67 1022.10 1022.57 1022.72 1023.02 1022.95 1022.81 1022.75 1022.82 1023.04 1023.66 1024.28 1024.72 1024.74 1024.95 1025.28 1025.30 1025.70 1025.81 1025.84 1025.85
1009.05 1009.10 1008.83 1008.00 1007.85 1008.32 1008.94 1009.23 1009.52 1009.41 1010.05 1010.67 1011.15 1011.53 1011.78 1012.05 1012.29 1012.59 1013.22 1014.41 1015.72 1016.69 1017.41 1018.39 1019.30 1020.17 1020.63 1021.28 1021.91 1022.28 1022.73 1022.90 1023.07 1022.93 1022.80 1022.67 1022.78 1023.39 1023.94 1024.64 1024.90 1024.97 1025.15 1025.31 1025.45 1025.72 1025.82 1025.85 1025.82
1009.11 1009.24 1009.00 1008.15 1007.48 1007.92 1008.71 1008.99 1009.14 1009.04 1009.35 1009.85 1010.55 1011.07 1011.41 1011.93 1012.32 1012.77 1013.46 1014.41 1015.48 1016.49 1017.48 1018.41 1019.16 1019.75 1020.22 1020.76 1021.11 1021.53 1022.03 1022.44 1022.51 1022.66 1022.72 1022.57 1022.99 1023.38 1023.89 1024.41 1024.77 1024.79 1025.03 1025.37 1025.55 1025.69 1025.93 1026.00 1025.82
1009.50 1008.90 1008.94 1008.75 1008.62 1008.43 1008.76 1009.13 1009.14 1008.86 1008.82 1009.36 1009.65 1010.17 1010.92 1011.50 1012.11 1012.67 1013.46 1014.63 1015.73 1016.64 1017.42 1018.08 1018.68 1019.38 1019.84 1020.32 1020.81 1021.28 1021.66 1022.15 1022.67 1022.74 1022.74 1022.79 1022.90 1023.23 1023.76 1024.14 1024.41 1024.58 1024.95 1025.33 1025.47 1025.59 1025.81 1026.11 1025.94
1009.52 1008.54 1008.97 1009.23 1009.63 1010.09 1009.67 1010.15 1009.60 1009.07 1008.71 1009.08 1009.72 1010.02 1010.53 1011.47 1012.00 1012.39 1013.08 1014.46 1015.35 1016.47 1017.48 1018.18 1018.46 1018.99 1019.30 1019.80 1020.39 1020.85 1021.27 1021.83 1021.95 1022.01 1022.34 1022.69 1022.92 1023.37 1023.62 1023.88 1024.06 1024.50 1024.95 1025.26 1025.44 1025.45 1025.78 1025.94 1026.12
1008.50 1008.37 1008.91 1010.10 1010.76 1010.90 1010.93 1010.69 1009.63 1009.13 1009.10 1009.00 1009.35 1009.48 1009.88 1010.33 1011.24 1012.08 1012.87 1013.75 1014.89 1015.98 1016.99 1017.62 1018.06 1018.50 1018.76 1019.43 1019.76 1020.39 1020.98 1020.99 1021.23 1021.77 1022.31 1022.75 1022.77 1023.03 1023.36 1024.01 1024.39 1024.84 1025.20 1025.30 1025.37 1025.51 1025.63 1025.74 1025.83
1008.13 1008.85 1009.79 1011.11 1011.71 1011.85 1010.75 1010.14 1009.71 1008.91 1008.49 1008.38 1008.02 1008.92 1009.84 1010.58 1011.01 1011.81 1012.61 1013.51 1014.44 1015.17 1016.16 1016.92 1017.58 1017.88 1018.33 1018.78 1019.31 1019.81 1020.26 1020.71 1021.14 1021.69 1022.23 1022.65 1023.01 1023.41 1023.74 1024.15 1024.59 1024.85 1025.12 1025.25 1025.32 1025.32 1025.55 1025.59 1025.54
1008.67 1009.81 1011.13 1012.33 1012.97 1012.60 1011.10 1010.77 1009.09 1007.80 1007.38 1007.72 1008.40 1008.79 1010.19 1010.05 1011.03 1011.93 1012.73 1013.44 1014.32 1015.02 1015.61 1016.12 1016.98 1017.58 1017.94 1018.48 1018.98 1019.48 1020.00 1020.51 1021.16 1021.71 1022.17 1022.82 1023.42 1023.81 1024.34 1024.58 1024.68 1024.78 1024.88 1025.01 1025.19 1025.39 1025.59 1025.57 1025.66
1009.31 1010.27 1011.66 1013.12 1014.11 1013.50 1011.38 1010.52 1008.31 1007.48 1007.75 1007.65 1007.98 1008.88 1010.04 1010.36 1011.06 1011.80 1012.45 1013.18 1013.81 1014.46 1015.18 1015.73 1016.54 1016.97 1017.62 1018.26 1018.84 1019.45 1019.97 1020.53 1021.04 1021.55 1022.01 1022.59 1023.20 1023.75 1024.19 1024.31 1024.42 1024.68 1024.86 1025.14 1025.27 1025.47 1025.59 1025.55 1025.64
1009.47 1010.13 1010.69 1012.37 1013.91 1013.92 1011.62 1009.82 1008.63 1008.03 1007.92 1007.77 1008.60 1009.65 1010.20 1010.58 1011.16 1011.82 1012.41 1012.89 1013.71 1014.49 1014.94 1015.53 1016.24 1016.85 1017.47 1018.10 1018.76 1019.40 1019.90 1020.47 1021.11 1021.60 1021.91 1022.35 1022.56 1023.18 1023.88 1024.14 1024.51 1024.82 1025.15 1025.23 1025.48 1025.62 1025.63 1025.64 1025.62
1008.73 1009.44 1010.74 1011.63 1013.38 1013.61 1012.01 1010.41 1009.38 1008.88 1008.82 1008.51 1009.38 1009.91 1010.42 1010.91 1011.38 1011.92 1012.41 1012.98 1013.81 1014.16 1014.93 1015.58 1016.36 1016.92 1017.57 1018.18 1018.78 1019.35 1019.92 1020.52 1021.11 1021.76 1022.46 1022.80 1023.14 1022.98 1023.41 1024.05 1024.54 1024.83 1025.19 1025.32 1025.40 1025.60 1025.47 1025.45 1025.46
1008.93 1009.05 1009.78 1011.03 1012.58 1013.50 1012.91 1011.28 1008.91 1008.61 1008.56 1008.87 1009.23 1009.72 1010.15 1010.75 1011.31 1011.87 1012.44 1012.91 1013.53 1014.11 1014.81 1015.56 1016.37 1017.10 1017.81 1018.42 1019.05 1019.66 1020.17 1020.77 1021.28 1021.60 1022.18 1022.67 1023.63 1023.93 1023.93 1024.06 1024.38 1024.71 1025.03 1025.05 1025.22 1025.36 1025.38 1025.31 1025.25
1008.24 1008.67 1009.66 1011.30 1012.53 1012.99 1012.68 1011.24 1009.07 1008.41 1008.19 1008.14 1008.52 1008.88 1009.26 1009.77 1010.52 1011.28 1011.95 1012.62 1013.29 1013.94 1014.60 1015.39 1016.30 1017.04 1017.77 1018.39 1019.12 1019.88 1020.44 1020.82 1021.30 1021.90 1022.57 1022.98 1023.37 1023.66 1023.94 1024.18 1024.43 1024.58 1024.71 1024.74 1024.80 1024.94 1025.02 1025.09 1024.99
Wind_Speed
5 6 3 3 3 4 5 6 4 3 5 6 15 14 16 9 4 5 4 16 18 15 17 16 22 21 20 19 18 18 19 20 21 20 19 19 18 18 17 16 17 18 19 20 19 18 18 18 18
3 3 1 3 3 1 8 5 5 0 5 5 10 9 8 7 6 11 10 15 15 16 14 15 21 20 20 19 18 19 20 20 19 19 20 19 19 18 18 17 17 18 19 19 18 18 17 17 16
3 4 2 5 4 7 5 3 6 7 6 3 5 7 5 2 7 3 15 18 17 17 15 16 20 20 19 19 18 18 20 18 18 19 19 20 20 18 19 18 17 17 18 16 17 16 16 16 16
2 4 4 1 10 15 10 8 6 6 6 11 12 8 5 6 5 7 10 9 17 17 17 18 20 21 20 19 19 19 20 16 16 18 18 20 20 19 18 16 16 16 16 16 16 15 15 14 14
1 2 3 5 9 13 4 5 8 9 6 6 2 5 4 5 11 11 12 9 11 17 15 16 18 18 19 20 20 19 19 16 17 18 18 19 18 17 17 15 15 14 14 14 14 13 11 11 12
3 2 2 6 13 5 13 12 7 10 3 2 10 7 4 7 14 13 13 9 14 12 13 15 19 18 17 18 18 18 17 17 17 17 17 17 16 15 14 13 12 12 11 11 11 9 9 10 11
5 2 8 10 16 5 6 5 15 7 2 4 3 7 7 11 11 13 15 16 19 14 12 12 10 13 13 15 16 16 16 16 16 16 16 15 14 13 12 11 10 10 9 9 7 5 7 9 11
4 4 8 10 12 4 0 6 3 10 8 7 8 7 7 11 15 14 15 16 15 12 11 7 6 9 7 9 14 16 15 14 15 15 14 13 13 12 12 9 8 8 7 6 5 2 5 6 7
2 2 11 10 0 4 5 3 2 7 15 9 6 6 17 16 18 17 14 13 12 7 8 9 10 9 8 8 11 13 13 13 13 11 12 8 4 6 7 9 9 8 7 5 1 3 6 6 5
2 4 8 3 6 6 5 12 14 10 11 3 13 15 17 17 18 19 18 10 7 9 9 11 13 11 9 8 8 6 9 6 6 5 6 4 5 5 7 7 10 9 6 4 2 6 8 7 5
7 11 10 3 6 8 9 5 4 5 1 3 6 8 13 17 16 20 16 19 15 13 8 10 10 8 10 8 6 4 4 4 5 6 5 5 3 4 3 2 0 3 3 3 4 6 4 7 5
6 10 10 7 7 7 7 3 2 5 4 12 11 4 10 14 20 20 18 14 13 11 10 13 15 11 10 7 6 6 5 3 4 4 5 4 2 3 3 2 3 4 3 5 5 4 5 7 7
7 8 4 9 10 6 16 8 3 3 3 12 16 11 9 11 9 21 20 19 17 14 11 10 10 10 9 6 4 5 5 5 5 5 6 4 5 4 4 5 4 4 4 5 5 5 5 6 6
7 9 3 4 7 5 16 5 10 8 7 6 8 6 11 11 17 14 18 19 17 15 12 7 7 7 11 7 9 7 6 6 6 4 5 6 4 7 5 5 5 5 4 5 5 5 4 4 5
9 6 5 3 4 4 10 6 5 8 13 10 11 13 12 11 24 22 18 17 18 15 13 9 8 10 11 9 8 5 5 4 5 5 6 6 6 6 6 5 5 4 4 6 5 5 5 5 5
7 3 2 2 8 3 10 5 9 16 17 15 16 13 9 12 16 20 17 19 17 17 15 9 10 10 9 9 6 5 5 4 4 3 4 7 7 7 6 5 4 2 3 4 5 4 3 3 4
4 3 3 2 1 9 6 5 13 10 16 13 10 8 8 9 15 15 20 19 19 18 15 14 12 10 9 8 6 6 6 4 3 3 3 6 6 8 6 5 2 3 4 4 3 2 2 2 4
1 3 3 6 8 12 6 7 6 9 15 15 13 10 9 10 14 15 18 18 17 16 17 17 11 9 7 6 5 4 3 2 2 2 3 6 5 8 6 4 3 4 4 3 2 2 2 0 1
5 6 8 9 8 6 9 9 11 10 10 11 13 12 9 10 11 13 13 19 16 17 17 16 14 11 8 5 4 2 3 3 3 3 6 6 6 7 6 3 2 3 4 3 3 1 2 3 3
6 11 10 14 5 4 7 8 11 11 10 14 12 10 10 7 12 9 10 15 18 18 15 14 14 12 8 5 3 3 4 3 4 3 4 5 6 6 6 5 4 4 4 5 3 2 2 1 2
3 6 2 2 5 5 3 6 6 7 6 10 14 13 13 15 15 12 11 18 16 14 15 13 13 13 10 10 4 4 2 4 2 3 3 5 7 7 7 6 5 4 4 1 2 2 3 2 3
4 5 5 3 6 2 2 4 1 5 10 12 13 13 14 11 12 13 11 16 17 13 13 14 14 13 10 8 8 7 5 6 5 5 4 5 6 6 6 6 5 4 2 4 2 3 1 2 3
7 7 10 8 6 10 4 6 8 3 5 6 3 9 15 16 18 16 13 14 16 16 15 13 13 11 9 10 11 9 5 4 4 4 8 4 5 6 3 6 7 6 4 3 4 4 4 2 2
3 2 4 5 1 1 5 6 5 6 9 5 3 9 6 10 15 14 14 16 18 17 15 12 13 10 10 9 10 10 8 7 8 8 7 5 2 5 7 7 6 5 4 3 2 3 4 5 5
7 4 3 7 7 6 8 3 10 11 12 9 15 22 7 11 9 11 15 12 13 12 13 11 10 10 11 9 8 8 8 8 8 7 5 6 4 4 5 4 5 3 3 5 4 4 4 5 3
4 3 6 5 2 7 8 7 6 15 7 12 13 8 7 8 11 14 14 12 11 12 10 11 13 16 11 9 8 8 9 5 5 6 6 5 5 4 5 5 6 5 5 4 4 3 4 4 3
2 4 5 7 2 3 5 4 6 7 4 6 8 8 8 8 8 11 10 11 11 9 9 8 11 10 9 8 8 8 7 8 7 7 6 5 6 6 5 6 4 4 3 4 4 3 3 4 3
8 8 1 4 3 3 5 3 3 6 3 8 8 8 8 8 8 8 9 10 7 9 7 7 8 9 8 9 8 7 8 7 7 7 5 6 4 5 6 5 3 2 3 4 4 3 3 4 2
1 3 2 4 6 5 1 6 1 7 8 9 10 11 11 10 9 8 8 11 11 9 8 8 7 8 10 10 7 7 7 7 5 6 6 7 5 4 4 3 1 2 4 3 3 3 2 2 3
7 6 6 6 5 3 6 7 2 7 9 9 9 12 13 14 11 10 11 13 12 12 11 9 8 11 10 8 8 8 6 5 6 6 6 7 6 4 4 2 2 3 3 3 0 2 4 4 3
Wind_Direction
223 212 152 345 48 90 250 250 358 27 40 343 66 80 87 42 47 112 96 112 127 131 122 119 118 120 119 117 115 110 106 103 102 101 96 94 89 87 87 84 82 79 74 70 62 57 50 41 32
287 268 76 285 134 60 275 200 122 201 129 116 80 88 49 62 41 96 107 129 133 122 120 127 120 120 119 118 116 112 108 105 104 103 103 96 92 90 88 83 78 75 69 66 61 53 46 38 26
303 217 115 155 208 211 226 294 135 174 164 125 94 58 74 108 95 63 138 136 138 127 127 124 118 119 121 117 113 109 106 106 112 106 104 100 96 92 87 82 78 75 73 70 65 56 44 32 19
276 338 332 105 259 258 214 225 186 117 77 83 107 79 61 342 186 124 112 146 140 131 132 123 124 125 120 116 110 110 105 108 106 103 101 98 95 95 90 85 83 79 74 66 60 52 41 29 23
312 278 219 244 255 276 232 207 143 77 64 15 77 106 76 19 52 95 104 128 124 129 126 127 121 118 113 113 115 110 109 112 107 103 102 101 101 97 90 86 84 79 72 69 61 51 41 29 20
286 115 336 264 272 87 54 5 33 87 63 305 95 111 122 108 66 76 86 84 75 93 115 110 118 107 105 110 110 109 112 110 107 109 105 104 101 99 95 90 87 82 75 71 62 50 34 28 12
200 78 255 281 286 47 10 15 21 339 308 271 125 99 132 103 93 98 100 93 78 65 62 88 84 111 108 112 113 111 109 112 114 110 111 112 112 105 97 90 87 88 90 84 71 47 36 24 9
183 116 292 272 293 95 3 109 39 37 285 289 143 138 171 125 114 103 96 102 111 124 128 118 149 107 112 117 112 110 116 119 118 120 125 126 120 118 111 103 103 101 104 108 108 60 45 11 346
265 1 264 273 147 192 179 166 291 149 287 322 21 76 129 131 120 106 96 85 106 135 139 151 139 136 121 121 120 115 120 125 125 131 134 110 132 133 135 141 137 143 138 123 117 1 37 10 345
129 222 249 287 187 146 197 152 173 171 220 313 86 99 123 126 122 121 112 95 101 174 176 180 149 144 148 131 127 130 142 149 137 139 153 163 165 155 159 160 160 160 140 159 274 8 14 41 20
254 245 260 261 128 142 162 17 326 84 144 132 118 133 140 137 135 125 133 134 160 171 197 154 145 157 140 141 153 159 155 155 132 155 177 182 163 141 151 115 108 93 121 21 41 54 28 30 20
237 254 241 180 125 152 118 192 153 142 166 136 109 88 157 159 154 143 142 160 161 173 148 138 144 153 155 157 163 162 157 129 102 102 88 97 147 85 104 102 117 78 104 73 59 43 21 24 6
239 256 316 141 169 162 102 69 173 2 93 156 121 128 222 172 139 142 156 161 169 149 137 140 147 154 160 115 106 110 107 107 100 77 54 37 89 99 90 96 100 77 62 59 50 33 25 16 8
271 236 166 124 121 107 105 87 74 304 152 110 162 218 226 182 139 140 161 157 145 136 141 142 133 118 111 112 108 105 101 104 95 91 85 74 57 92 84 71 65 63 64 62 59 48 35 14 12
320 4 94 100 118 116 110 24 175 247 156 160 183 199 210 145 149 161 177 142 138 139 136 143 120 108 108 105 98 112 119 110 105 104 97 98 104 103 102 93 73 73 71 85 62 46 30 19 358
317 29 97 232 146 138 90 282 279 160 150 163 176 191 175 160 133 148 135 135 138 140 142 143 114 104 105 105 90 82 72 70 70 119 113 114 116 107 93 89 77 48 75 82 75 56 26 5 358
327 158 209 308 225 139 146 230 255 181 141 151 154 177 154 132 136 138 141 144 146 142 130 116 115 117 111 107 104 89 83 86 123 119 116 121 121 104 103 103 99 64 100 83 87 62 88 5 345
297 331 299 240 261 174 186 193 215 169 154 164 168 172 164 153 152 153 150 146 144 134 130 131 129 118 112 99 92 81 95 118 164 151 143 124 104 106 109 113 156 80 76 62 40 61 352 294 287
172 259 275 280 237 125 195 177 192 184 157 163 167 170 168 163 164 158 150 141 133 136 138 142 139 142 133 132 134 123 159 167 161 161 153 130 119 112 108 116 97 69 80 48 46 101 18 320 347
263 250 263 247 194 116 193 187 186 185 173 170 168 170 167 144 152 150 132 142 144 150 145 146 149 156 153 156 166 156 154 175 160 163 168 142 137 129 121 123 116 90 61 42 30 33 333 326 9
337 330 50 155 349 340 31 318 182 206 158 172 171 170 162 158 163 159 137 146 144 152 152 158 158 165 170 184 162 128 116 86 121 177 161 171 144 138 150 140 131 115 112 88 8 1 37 285 307
193 238 45 353 49 228 88 255 293 237 195 168 179 181 176 173 170 165 155 148 152 149 155 160 165 175 184 182 158 162 167 168 183 176 151 150 138 153 153 150 153 140 96 46 17 31 10 35 321
219 199 180 200 237 272 271 91 274 137 226 193 228 204 186 183 168 170 162 134 151 145 158 170 176 186 180 185 167 174 180 181 154 152 136 146 165 177 165 70 81 78 69 54 36 354 335 291 239
138 67 44 74 24 97 239 139 273 216 210 212 171 272 197 172 165 166 163 146 156 161 165 169 180 189 183 167 168 172 166 151 131 140 150 163 125 101 95 93 96 102 82 49 5 352 332 304 292
45 50 351 4 12 244 306 177 224 224 226 176 198 229 231 132 138 145 148 153 149 160 166 163 184 177 171 153 158 134 136 127 130 147 145 127 109 92 88 86 78 67 50 22 7 342 324 307 328
46 106 157 160 149 287 322 224 263 207 245 230 209 201 194 139 139 153 156 159 155 162 173 179 173 165 159 151 140 133 127 128 120 117 117 113 103 110 106 91 62 38 27 4 339 345 342 30 11
335 55 243 113 318 58 253 359 26 112 83 81 160 156 150 133 140 148 153 150 156 154 149 147 149 154 148 145 128 123 121 117 123 121 110 118 121 115 87 77 61 28 357 355 55 40 18 8 345
150 218 149 352 154 262 319 4 183 129 197 127 140 152 155 151 150 149 145 140 142 134 144 142 141 153 145 126 130 130 125 118 113 103 96 80 93 107 95 73 59 1 40 81 57 15 342 44 359
245 257 248 145 136 168 130 281 195 167 162 166 180 173 168 169 172 165 154 155 154 149 151 168 145 139 131 128 120 119 120 118 116 120 105 124 125 88 94 95 42 284 152 108 75 13 308 348 336
191 194 170 121 262 197 146 271 228 141 176 177 190 181 176 175 176 171 164 166 164 165 165 165 147 135 137 131 121 121 117 121 129 123 129 142 155 132 106 71 316 274 158 139 86 278 304 279 283